Regional Weather Roundup
Issued by NWS

Home | Current Version | Previous Version | Text Only | Print | Product List | Glossary Off
Versions: 1 2 3 4 5 6 7 8 9 10 11 12 13 14 15 16 17 18 19 20 21 22 23 24 25 26 27 28 29 30 31 32 33 34 35 36 37 38 39 40 41 42 43 44 45 46 47 48 49 50

000
ASUS45 KCYS 022010
RWRWY

WYOMING REGIONAL WEATHER ROUNDUP
NATIONAL WEATHER SERVICE CHEYENNE WY
200 PM MDT TUE SEP 02 2014

NOTE:  "FAIR" INDICATES FEW OR NO CLOUDS BELOW 12,000 FEET
WITH NO SIGNIFICANT WEATHER AND/OR OBSTRUCTIONS TO VISIBILITY.

WYZ001-022100-
YELLOWSTONE NATIONAL PARK

CITY           SKY/WX    TMP DP  RH WIND       PRES   REMARKS
LK YELLOWSTONE   N/A     61  31  32 W13G24    30.15F
W YELLOWSTONE  NOT AVBL

$$
WYZ002>013-054>058-071-098>099-022100-
NORTHERN WYOMING

CITY           SKY/WX    TMP DP  RH WIND       PRES   REMARKS
JACKSON        SUNNY     72  36  26 S17G25    30.06F
CODY             N/A    N/A N/A N/A MISG        N/A
GREYBULL       SUNNY     78  35  21 VRB7      29.87F
WORLAND        SUNNY     78  38  23 NW6       29.88F
SHERIDAN       SUNNY     77  42  28 VRB3      29.88F
BUFFALO        MOSUNNY   75  31  19 E5        29.93F
GILLETTE       MOSUNNY   77  34  21 S8        29.91F
HULETT         FAIR      77  39  25 MISG      29.94
NEWCASTLE      FAIR      77  32  19 S6        29.95

$$
WYZ014>020-022>026-101>103-022100-
CENTRAL WYOMING

CITY           SKY/WX    TMP DP  RH WIND       PRES   REMARKS
BIG PINEY      SUNNY     72  35  25 W9        30.12F
PINEDALE       CLEAR     68  32  26 E5        30.14F
DUBOIS         FAIR      68  27  21 W18G36    30.07F
LANDER         SUNNY     77  31  18 N9        29.96F
RIVERTON       SUNNY     73  25  16 VRB5      29.98F
CASPER         SUNNY     81  26  13 SW14G26   29.97F
DOUGLAS        NOT AVBL

$$
WYZ021-027>030-104>119-022100-
SOUTHERN WYOMING

CITY           SKY/WX    TMP DP  RH WIND       PRES   REMARKS
EVANSTON       SUNNY     77  36  22 W22G30    30.14F
KEMMERER       CLEAR     72  34  25 W12G22    30.15F
FORT BRIDGER   FAIR      80  35  20 W20G28    30.16F
ROCK SPRINGS   SUNNY     77  32  19 W16       30.11F
DIXON          FAIR      77  36  22 SW16G22   30.15F
RAWLINS        SUNNY     75  30  19 SW20G30   30.12F
SARATOGA       FAIR      73  32  21 W20G29    30.15F
LARAMIE        SUNNY     76  30  18 W21G30    30.14F
CHEYENNE       SUNNY     79  36  21 S14       30.08F
TORRINGTON     SUNNY     83  34  17 W12G23    29.94F
PINE BLUFFS    FAIR      81  39  22 S13G22    30.03F

$$


USA.gov is the U.S. government's official web portal to all federal, state and local government web resources and services.